Flag for United Kingdom Weather past 2 weeks in Plymouth, England, United Kingdom

Now
63 °F

Passing clouds.


Feels Like: 63 °F
Forecast: 57 / 65 °F
Wind: 12 mph from Southeast

Location: Exeter Airport

Current Time: Jul 4, 2015 at 3:03:44 AM

Latest Report: Jul 4, 2015 at 2:20 AM


Visibility: N/A

Pressure: 29.95 "Hg

Humidity: 94%

Dew point: 61 °F

Location of PlymouthLocation

Historic Weather in Plymouth — Graph

°F

Plymouth temperature yesterday

Maximum temperature yesterday: 72 °F (at 4:20 PM)
Minimum temperature yesterday: 50 °F (at 5:50 AM)
Average temperature yesterday: 64 °F

Past Weeks' High & Low Weather Summary

 TemperatureHumidityPressure
High77 °F (Jun 30, 5:50 PM)100% (Jun 19, 5:20 AM)30.27 "Hg (Jun 19, 5:20 AM)
Low43 °F (Jun 24, 5:50 AM)46% (Jun 29, 4:20 PM)29.77 "Hg (Jul 1, 7:20 AM)
Average62 °F78%30.09 "Hg
* Reported Jun 19 1:20 AM — Jul 4 1:50 AM, Plymouth, Weather by CustomWeather, © 2015

Note: Actual official high and low records may vary slightly from our data, if they occured in-between our weather recording intervals... More about our weather records

Advertising

Plymouth weather history for previous 24 hours

 ConditionsComfort  
Time TempWeatherWind HumidityBarometerVisibility
1:50 AM
Sat, Jul 4
64 °FPassing clouds.10 mph88%29.95 "HgN/A
1:20 AM64 °FPassing clouds.9 mph88%29.95 "HgN/A
12:50 AM64 °FPassing clouds.13 mph88%29.95 "HgN/A
12:20 AM64 °FPassing clouds.10 mph88%29.95 "HgN/A
11:50 PM
Fri, Jul 3
64 °FPassing clouds.6 mph88%29.95 "HgN/A
11:20 PM64 °FClear.8 mph88%29.95 "Hg10 mi
10:50 PM64 °FPassing clouds.7 mph88%29.95 "HgN/A
9:50 PM64 °FPassing clouds.6 mph83%29.98 "HgN/A
9:20 PM66 °FSunny.7 mph78%30.01 "Hg10 mi
8:50 PM66 °FSunny.5 mph78%30.01 "Hg10 mi
8:20 PM66 °FSunny.8 mph78%30.01 "Hg10 mi
7:50 PM66 °FSunny.5 mph78%30.04 "Hg10 mi
7:20 PM66 °FSunny.7 mph78%30.04 "Hg10 mi
6:50 PM68 °FSunny.12 mph73%30.04 "Hg10 mi
6:20 PM70 °FSunny.6 mph69%30.04 "Hg10 mi
5:50 PM72 °FPassing clouds.8 mph65%30.07 "HgN/A
5:20 PM72 °FPassing clouds.6 mph65%30.07 "HgN/A
4:50 PM72 °FSunny.3 mph61%30.09 "Hg10 mi
4:20 PM72 °FPassing clouds.8 mph57%30.09 "HgN/A
3:50 PM70 °FPassing clouds.9 mph64%30.09 "HgN/A
3:20 PM70 °FPassing clouds.14 mph60%30.12 "HgN/A
2:50 PM68 °FPassing clouds.14 mph64%30.15 "HgN/A
2:20 PM68 °FPassing clouds.10 mph64%30.15 "HgN/A
1:50 PM68 °FPassing clouds.13 mph60%30.15 "HgN/A
1:20 PM68 °FPassing clouds.13 mph64%30.18 "HgN/A
12:50 PM68 °FPassing clouds.14 mph60%30.18 "HgN/A
12:20 PM68 °FPassing clouds.17 mph64%30.21 "HgN/A
11:50 AM68 °FPassing clouds.17 mph64%30.21 "HgN/A
11:20 AM68 °FPassing clouds.18 mph64%30.21 "HgN/A
10:50 AM66 °FPassing clouds.17 mph64%30.24 "HgN/A
10:20 AM66 °FPassing clouds.16 mph64%30.24 "HgN/A
9:50 AM66 °FPassing clouds.14 mph73%30.24 "HgN/A
9:20 AM64 °FPassing clouds.10 mph78%30.24 "HgN/A
8:50 AM59 °FPassing clouds.1 mph100%30.24 "HgN/A
8:20 AM57 °FPassing clouds.2 mph100%30.27 "HgN/A
7:50 AM55 °FFog.2 mph100%30.27 "HgN/A
7:20 AM54 °FFog.1 mph100%30.27 "HgN/A
6:50 AM50 °FFog.3 mph100%30.27 "Hg1 mi
6:20 AM50 °FFog.1 mph100%30.27 "Hg0 mi
5:50 AM50 °FFog.3 mph100%30.24 "Hg1 mi
Weather by CustomWeather, © 2015

See weather overviewHow to use our weather pages